Location: Unspecified
(0.0000°N, 0.0000°E)
Time: 23:00:55
(UTC+00:00)

S-56A Canister/Altair - Pass Details

Date: 09 October 2020
Orbit: 633 x 2499 km, 38.9° (Epoch: 28 October)

Event Time Altitude Azimuth Distance (km) Brightness Sun altitude
Rises 06:59:48 0° 216° (SW) 3,498 10.6 18.0°
Reaches altitude 10° 07:02:03 10° 211° (SSW) 2,734 10.2 18.6°
Maximum altitude 07:08:32 52° 135° (SE) 1,552 9.9 20.2°
Drops below altitude 10° 07:18:19 10° 61° (ENE) 4,075 12.2 22.6°
Sets 07:22:24 0° 57° (ENE) 5,360 12.6 23.6°
